Terminal Aerodrome Forecast
Issued by NWS Sterling, VA

Home | Current Version | Previous Version | Text Only | Print | Product List | Glossary On
Versions: 1 2 3 4 5 6 7 8 9 10 11 12 13 14 15 16 17 18 19 20
000
FTUS41 KLWX 281453 AAA
TAFCHO
TAF AMD
KCHO 281453Z 2815/2912 32012G24KT P6SM SCT080
     FM282300 32010KT P6SM FEW250
     FM290400 32006KT P6SM FEW250=

USA.gov is the U.S. government's official web portal to all federal, state and local government web resources and services.